FLOCK 4BE-30

Last updated on Mon Sep 16 2024 00:02:03 GMT+0000 (Coordinated Universal Time)

1 60499U 24149AH 24259.16156727 .00018999 00000+0 91695-3 0 9993 2 60499 97.4440 334.2839 0004719 34.1231 326.0306 15.18709538 3836
UTC large
Height (km)
Speed (km/s)
/
Latitude / Longitude
Inclination (degrees)
Orbital Period (minutes)
Azimuth
Elevation
Range (km)
Doppler Factor

Next 0 passes for location: London (51.5072 / 0.1276)

Sorry there are no passes over London.